Location: Kanchaveti
(42.1608°N, 44.4492°E)
Time: 04:33:33
(UTC+00:00)

Daily predictions for brighter satellites

Satellite Brightness Start Highest point End
(mag) Time Altitude Azimuth Time Altitude Azimuth Time Altitude Azimuth
USA 290 3.3 00:05:18 37° NNW 00:05:18 37° NNW 00:07:33 10° N
DMSP B5D2-2 4.0 00:04:38 42° SSW 00:06:12 62° W 00:11:21 10° NNW
Meteor 2-20 Rocket 4.3 00:04:57 35° SSW 00:07:41 76° W 00:13:41 10° N
Cosmos 1655 Rocket 3.9 00:01:47 10° N 00:08:02 89° ENE 00:13:50 12° S
NOSS 3-4 (A) 4.2 00:01:31 10° NNW 00:08:21 67° NE 00:16:23 10° SE
NOSS 3-4 (C) 4.3 00:02:04 10° NNW 00:08:55 67° NE 00:16:56 10° SE
Cosmos 2333 4.1 00:03:18 10° NNW 00:08:59 80° WSW 00:14:42 10° SSE
Cosmos 1812 Rocket 4.5 00:12:34 31° WNW 00:12:34 31° WNW 00:16:14 10° NNW
Meteor 2-4 Rocket 3.6 00:10:12 27° S 00:13:10 80° E 00:18:32 10° NNE
IDEFIX/ARIANE 42P 4.2 00:12:39 10° NNW 00:15:59 18° WNW 00:16:41 17° WNW
Cosmos 1066 Rocket 4.5 00:14:46 16° S 00:18:59 62° E 00:24:16 10° NNE
USA 234 3.5 00:13:05 10° ESE 00:19:34 70° NE 00:26:05 10° NW
Envisat 3.3 00:14:48 10° N 00:19:41 49° WNW 00:21:16 36° WSW
Aureole 1 Rocket 3.2 00:17:36 10° NNW 00:21:58 87° WSW 00:27:29 10° SSE
JB-3 4.1 00:20:55 23° SSE 00:23:03 82° ENE 00:26:40 10° N
ISS -3.8 00:23:17 61° S 00:23:39 70° SE 00:27:02 10° ENE
Meteor 1-27 Rocket 3.9 00:21:07 31° SSW 00:23:58 62° WNW 00:29:51 10° N
Iridium 4 Rocket 3.9 00:23:28 34° W 00:24:10 36° W 00:28:45 10° NNW
AQUA 4.5 00:25:28 10° NNE 00:30:03 52° E 00:34:36 10° S
Cosmos 2084 Rocket 3.3 00:26:06 10° NW 00:30:18 68° WSW 00:34:31 10° SSE
Cosmos 1461 2.5 00:29:32 44° SW 00:30:38 88° NW 00:34:23 10° NNE
H-2A R/B 2.7 00:31:28 37° W 00:31:28 37° W 00:34:39 10° NNW
Cosmos 2297 Rocket 4.2 00:26:48 10° SSE 00:31:17 25° ESE 00:35:48 10° NE
ADEOS II 2.1 00:27:25 10° N 00:32:37 66° WNW 00:35:39 25° SSW
SL-16 R/B 3.2 00:27:26 10° SE 00:33:32 58° ENE 00:39:39 10° N
Cosmos 990 Rocket 4.4 00:29:03 10° NW 00:33:47 38° WSW 00:36:04 25° SSW
Cosmos 1842 Rocket 3.4 00:31:59 24° S 00:34:34 87° WNW 00:38:53 10° N
CZ-3 R/B 3.9 00:11:19 15° WSW 00:37:21 48° SSW 00:46:33 10° ESE
ADEOS Rocket 4.5 00:31:22 10° N 00:37:48 32° WNW 00:41:54 20° WSW
Cosmos 1238 Rocket 3.4 00:39:50 24° WNW 00:39:50 24° WNW 00:41:51 10° NNW
ALOS 2.9 00:35:37 10° N 00:39:48 37° WNW 00:41:29 27° WSW
CZ-2D R/B 2.6 00:35:43 10° N 00:40:38 42° WNW 00:43:17 24° WSW
COSMOS 2428 3.8 00:35:53 10° NNW 00:41:23 47° ENE 00:46:51 10° SE
Cosmos 841 Rocket 3.4 00:38:30 20° SSW 00:42:04 87° WNW 00:47:16 10° NNE
Alouette 2 Rocket 3.4 00:38:59 10° NNW 00:42:41 46° W 00:44:25 25° SSW
Okean 3 Rocket 3.8 00:46:13 10° N 00:50:40 74° E 00:55:07 10° SSE
Sich 1 3.0 00:47:07 10° N 00:51:17 78° E 00:55:24 10° S
Cosmos 1898 Rocket 3.4 00:46:38 10° NNW 00:51:48 85° WSW 00:56:58 10° SSE
DELTA 2 R/B (1) 4.3 00:52:27 19° SW 00:55:58 41° SSE 01:01:08 10° E
Cosmos 1937 Rocket 3.6 00:51:17 10° NNW 00:56:30 78° ENE 01:01:37 10° SSE
Cosmos 2360 Rocket 3.1 00:52:20 10° NW 00:56:57 26° WSW 01:01:33 10° SSW
Cosmos 1758 3.9 00:53:23 10° N 00:56:57 52° E 01:00:29 10° SSE
Cosmos 2333 Rocket 3.8 00:54:37 10° WNW 00:57:05 15° W 00:57:05 15° W
Meteor 1-18 Rocket 4.1 00:52:21 10° SSW 00:57:55 78° W 01:03:30 10° N
EP 1 4.2 00:56:39 10° NW 00:59:17 70° SW 01:02:20 10° SSE
Cosmos 1805 Rocket 4.4 00:55:40 10° N 00:59:59 54° E 01:04:15 10° SSE
Cosmos 1553 Rocket 4.0 00:54:58 10° SSW 01:01:05 64° W 01:07:20 10° N
ATLAS 5 CENTAUR R/B 4.0 00:57:43 17° SW 01:02:04 82° NW 01:23:14 10° NE
Meteor 2-10 Rocket 3.5 00:59:47 10° NNW 01:04:52 65° W 01:10:07 10° S
In-Cosmos 22 4.1 00:59:57 10° S 01:05:13 89° W 01:10:37 10° N
Resurs 1-4 Rocket 3.5 01:05:14 10° NNW 01:09:12 22° WNW 01:12:17 13° WSW
H-2A R/B 1.8 01:06:29 10° N 01:10:29 74° WNW 01:14:24 10° SSW
Cosmos 2322 Rocket 3.5 01:08:21 10° WNW 01:12:00 18° W 01:15:03 12° SW
CZ-2C R/B 2.6 01:14:15 10° NNE 01:19:06 71° ESE 01:23:46 10° S
USA 276 0.9 01:21:08 10° NW 01:22:45 64° NNE 01:24:35 10° ESE
H-2A R/B 3.4 01:20:04 10° NNW 01:24:00 23° WNW 01:27:58 10° WSW
Cosmos 1340 Rocket 4.1 01:20:35 10° N 01:24:10 42° ENE 01:27:45 10° SSE
Cosmos 2219 Rocket 3.2 01:21:46 10° NW 01:26:14 25° WSW 01:30:42 10° SSW
Cosmos 2237 Rocket 3.5 01:21:06 10° NNW 01:26:35 45° ENE 01:32:00 10° SE
USA 267 4.4 01:21:08 10° NE 01:26:51 33° NNW 01:32:34 10° W
SL-14 R/B 4.0 01:29:04 10° SW 01:32:35 33° WNW 01:36:08 10° N
SL-08 RB Rocket 3.8 01:28:24 10° N 01:32:44 56° WNW 01:37:05 10° SSW
Cosmos 2315 Rocket 4.2 01:27:16 10° S 01:33:38 83° E 01:40:03 10° N
Cosmos 1745 Rocket 3.9 01:27:38 10° NNW 01:33:46 72° W 01:39:51 10° S
ARGOS 3.7 01:29:15 10° N 01:34:16 40° WNW 01:39:13 10° SW
RESURS DK-1 3.8 01:30:29 10° NNW 01:34:16 42° ENE 01:38:02 10° SE
USA 81 4.5 01:31:03 10° N 01:36:19 69° E 01:41:33 10° SSE
SL-4 R/B 3.1 01:33:52 10° W 01:36:48 21° SW 01:39:38 10° S
Cosmos 2227 Rocket 3.8 01:33:25 10° S 01:38:33 37° ESE 01:43:42 10° NE
BREEZE-M DEB (TANK) 4.5 01:21:38 10° W 01:40:09 54° NNW 01:44:20 10° ENE
Cosmos 1408 Rocket 3.7 01:36:30 10° NNW 01:40:38 49° W 01:44:44 10° SSW
Cosmos 1939 Rocket 3.0 01:37:55 10° NNE 01:41:33 70° ESE 01:45:11 10° S
Gbstr 26 Del rocket 3.8 01:40:25 10° W 01:43:27 23° SW 01:46:36 10° S
Cosmos 2322 4.0 01:41:10 10° NW 01:46:37 47° WSW 01:52:01 10° S
